W9PVR-13 Weather Reports


Display with metric or nautical units.
time (UTC)temp
F
wind
direction
speed
MPH
gust
MPH
rain 1hr
in
rain 24hr
in
rain mn
in
humidity
%
barometer
mb
20260906154228 0 141 0.0 0.0 0.00 0.00 0.00 75 982.8
20260906153727 0 140 0.0 0.0 0.00 0.00 0.00 76 983.0
20260906153227 0 141 0.0 0.0 0.00 0.00 0.00 78 983.0
20260906152727 0 141 1.0 1.0 0.00 0.00 0.00 77 982.9
20260906152226 0 140 1.0 1.0 0.00 0.00 0.00 74 983.1
20260906151726 0 141 2.0 1.0 0.00 0.00 0.00 78 983.0
20260906151225 0 140 1.0 1.0 0.00 0.00 0.00 77 982.9
20260906150725 0 140 0.0 0.0 0.00 0.00 0.00 77 982.9
20260906150224 0 140 0.0 0.0 0.00 0.00 0.00 75 982.9
20260906145724 0 141 1.0 1.0 0.00 0.00 0.00 73 982.5
20260906145224 0 140 1.0 1.0 0.00 0.00 0.00 71 982.8
20260906144723 0 141 0.0 0.0 0.00 0.00 0.00 74 982.8
20260906144223 0 140 1.0 1.0 0.00 0.00 0.00 75 982.9
20260906143722 0 140 1.0 1.0 0.00 0.00 0.00 75 982.8
20260906143222 0 141 1.0 1.0 0.00 0.00 0.00 79 982.7
20260906142722 0 141 0.0 0.0 0.00 0.00 0.00 80 982.7
20260906142222 0 140 0.0 0.0 0.00 0.00 0.00 80 982.6
20260906141721 0 139 1.0 2.0 0.00 0.00 0.00 80 982.8
20260906141221 0 140 1.0 1.0 0.00 0.00 0.00 81 982.7
20260906140720 0 141 2.0 2.0 0.00 0.00 0.00 81 983.0
20260906140220 0 146 1.0 1.0 0.00 0.00 0.00 82 982.9
20260906135720 0 146 0.0 0.0 0.00 0.00 0.00 85 982.7
20260906135219 0 145 0.0 0.0 0.00 0.00 0.00 90 982.6
20260906134719 0 145 0.0 0.0 0.00 0.00 0.00 93 982.8
20260906134218 0 145 0.0 0.0 0.00 0.00 0.00 96 982.8
20260906133718 0 144 1.0 1.0 0.00 0.00 0.00 98 982.9
20260906133218 0 144 0.0 0.0 0.00 0.00 0.00 98 983.1
20260906132717 0 144 0.0 0.0 0.00 0.00 0.00 98 983.0
20260906132217 0 144 0.0 0.0 0.00 0.00 0.00 98 982.8
20260906131716 0 144 0.0 0.0 0.00 0.00 0.00 98 982.8
20260906131216 0 144 0.0 0.0 0.00 0.00 0.00 98 982.8
20260906130716 0 144 0.0 0.0 0.00 0.00 0.00 98 982.7
20260906130215 0 144 0.0 0.0 0.00 0.00 0.00 98 982.5
20260906125715 0 144 0.0 0.0 0.00 0.00 0.00 98 982.6
20260906125214 0 144 0.0 0.0 0.00 0.00 0.00 98 982.5
20260906124714 0 143 0.0 0.0 0.00 0.00 0.00 98 982.5
20260906124214 0 143 0.0 0.0 0.00 0.00 0.00 98 982.4
20260906123713 0 144 0.0 0.0 0.00 0.00 0.00 98 982.4
20260906123213 0 144 0.0 0.0 0.00 0.00 0.00 98 982.5
20260906122713 0 143 0.0 0.0 0.00 0.00 0.00 98 982.4
20260906122212 0 144 0.0 0.0 0.00 0.00 0.00 98 982.2
20260906121712 0 144 0.0 0.0 0.00 0.00 0.00 98 982.2
20260906121212 0 144 0.0 0.0 0.00 0.00 0.00 98 982.1
20260906120711 0 144 0.0 0.0 0.00 0.00 0.00 98 982.3
20260906120211 0 144 0.0 0.0 0.00 0.00 0.00 98 982.1
20260906115711 0 144 0.0 0.0 0.00 0.00 0.00 98 982.1
20260906115210 0 144 0.0 0.0 0.00 0.00 0.00 98 981.9
20260906114710 0 144 0.0 0.0 0.00 0.00 0.00 98 982.0
20260906114209 0 144 0.0 0.0 0.00 0.00 0.00 98 982.0
20260906113709 0 144 0.0 0.0 0.00 0.00 0.00 98 982.0
20260906113209 0 144 1.0 1.0 0.00 0.00 0.00 98 982.0
20260906112708 0 144 0.0 0.0 0.00 0.00 0.00 98 981.9
20260906112208 0 144 0.0 0.0 0.00 0.00 0.00 98 982.0
20260906111708 0 144 0.0 0.0 0.00 0.00 0.00 98 981.8
20260906111207 0 144 0.0 0.0 0.00 0.00 0.00 98 981.9
20260906110707 0 144 0.0 0.0 0.00 0.00 0.00 98 981.9
20260906110207 0 144 0.0 0.0 0.00 0.00 0.00 98 981.9
20260906105706 0 144 0.0 0.0 0.00 0.00 0.00 98 981.6
20260906105206 0 144 0.0 0.0 0.00 0.00 0.00 98 981.6
20260906104705 0 144 0.0 0.0 0.00 0.00 0.00 98 981.2
20260906104205 0 144 0.0 0.0 0.00 0.00 0.00 98 981.3
20260906103705 0 144 0.0 0.0 0.00 0.00 0.00 98 981.2
20260906103204 0 144 0.0 0.0 0.00 0.00 0.00 98 981.1
20260906102704 0 144 0.0 0.0 0.00 0.00 0.00 98 981.1
20260906102204 0 144 0.0 0.0 0.00 0.00 0.00 98 981.1
20260906101703 0 144 0.0 0.0 0.00 0.00 0.00 98 980.9
20260906101203 0 144 0.0 0.0 0.00 0.00 0.00 98 980.7
20260906100703 0 144 0.0 0.0 0.00 0.00 0.00 98 980.8
20260906100202 0 144 0.0 0.0 0.00 0.00 0.00 98 980.9
20260906095702 0 144 0.0 0.0 0.00 0.00 0.00 98 981.0
20260906095201 0 144 0.0 0.0 0.00 0.00 0.00 98 981.0
20260906094701 0 144 0.0 0.0 0.00 0.00 0.00 98 981.1
20260906094201 0 144 0.0 0.0 0.00 0.00 0.00 98 981.1
20260906093700 0 144 0.0 0.0 0.00 0.00 0.00 98 981.3
20260906093200 0 144 0.0 0.0 0.00 0.00 0.00 98 981.2
20260906092700 0 144 1.0 0.0 0.00 0.00 0.00 98 981.2
20260906092159 0 144 0.0 0.0 0.00 0.00 0.00 97 981.4
20260906091659 0 144 0.0 0.0 0.00 0.00 0.00 97 981.3
20260906091158 0 144 0.0 0.0 0.00 0.00 0.00 97 981.2
20260906090658 0 144 0.0 0.0 0.00 0.00 0.00 97 981.2
20260906090158 0 144 0.0 0.0 0.00 0.00 0.00 97 981.2
20260906085657 0 144 1.0 1.0 0.00 0.00 0.00 97 981.1
20260906085157 0 144 1.0 1.0 0.00 0.00 0.00 97 981.1
20260906084657 0 144 0.0 0.0 0.00 0.00 0.00 97 981.0
20260906084156 0 144 0.0 0.0 0.00 0.00 0.00 97 981.1
20260906083656 0 144 0.0 0.0 0.00 0.00 0.00 97 981.0
20260906083155 0 144 0.0 0.0 0.00 0.00 0.00 97 981.1
20260906082655 0 144 0.0 0.0 0.00 0.00 0.00 97 981.2
20260906082155 0 144 0.0 0.0 0.00 0.00 0.00 97 981.2
20260906081654 0 144 1.0 0.0 0.00 0.00 0.00 96 981.5
20260906081154 0 144 1.0 1.0 0.00 0.00 0.00 95 981.1
20260906080654 0 144 1.0 1.0 0.00 0.00 0.00 95 981.1
20260906080153 0 144 1.0 0.0 0.00 0.00 0.00 96 981.1
20260906075653 0 144 0.0 0.0 0.00 0.00 0.00 96 981.3
20260906075153 0 144 0.0 0.0 0.00 0.00 0.00 96 981.2
20260906074652 0 144 0.0 0.0 0.00 0.00 0.00 96 981.2
20260906074152 0 144 0.0 0.0 0.00 0.00 0.00 96 981.2
20260906073651 0 144 0.0 0.0 0.00 0.00 0.00 96 981.4
20260906073151 0 144 0.0 0.0 0.00 0.00 0.00 96 981.3
20260906072651 0 144 0.0 0.0 0.00 0.00 0.00 96 981.1
20260906072150 0 144 0.0 0.0 0.00 0.00 0.00 96 981.6
20260906071650 0 144 0.0 0.0 0.00 0.00 0.00 96 981.2
20260906071150 0 144 1.0 0.0 0.00 0.00 0.00 96 981.4
20260906070649 0 144 0.0 0.0 0.00 0.00 0.00 96 981.3
20260906070149 0 144 0.0 0.0 0.00 0.00 0.00 96 981.5
20260906065648 0 144 0.0 0.0 0.00 0.00 0.00 96 981.3
20260906065148 0 144 0.0 0.0 0.00 0.00 0.00 96 981.2
20260906064648 0 144 0.0 0.0 0.00 0.00 0.00 96 981.4
20260906064147 0 144 0.0 0.0 0.00 0.00 0.00 96 981.2
20260906063647 0 144 0.0 0.0 0.00 0.00 0.00 95 981.5
20260906063146 0 144 0.0 0.0 0.00 0.00 0.00 95 981.6
20260906062646 0 144 0.0 0.0 0.00 0.00 0.00 95 981.5
20260906062146 0 144 0.0 0.0 0.00 0.00 0.00 95 981.6
20260906061645 0 144 0.0 0.0 0.00 0.00 0.00 95 981.4
20260906061145 0 144 0.0 0.0 0.00 0.00 0.00 95 981.3
20260906060645 0 144 0.0 0.0 0.00 0.00 0.00 95 981.3
20260906060144 0 144 0.0 0.0 0.00 0.00 0.00 95 981.3
20260906055644 0 144 0.0 0.0 0.00 0.00 0.00 95 980.9
20260906055143 0 144 0.0 0.0 0.00 0.00 0.00 94 981.2
20260906054643 0 144 0.0 0.0 0.00 0.00 0.00 94 981.4
20260906054143 0 144 0.0 0.0 0.00 0.00 0.00 94 981.2
20260906053642 0 144 0.0 0.0 0.00 0.00 0.00 94 981.4
20260906053142 0 144 0.0 0.0 0.00 0.00 0.00 94 981.3
20260906052642 0 144 1.0 1.0 0.00 0.00 0.00 94 981.4
20260906052141 0 144 0.0 0.0 0.00 0.00 0.00 94 981.3
20260906051641 0 144 0.0 0.0 0.00 0.00 0.00 94 981.3
20260906051140 0 144 0.0 0.0 0.00 0.00 0.00 94 981.4
20260906050640 0 144 0.0 0.0 0.00 0.00 0.00 94 981.4
20260906050140 0 144 0.0 0.0 0.00 0.00 0.00 94 981.5
20260906045639 0 144 0.0 0.0 0.00 0.00 0.00 94 981.2
20260906045139 0 144 0.0 0.0 0.00 0.00 0.00 94 981.4
20260906044639 0 144 0.0 0.0 0.00 0.00 0.00 94 981.4
20260906044138 0 144 0.0 0.0 0.00 0.00 0.00 94 981.2
20260906043638 0 144 0.0 0.0 0.00 0.00 0.00 94 981.3
20260906043137 0 144 0.0 0.0 0.00 0.00 0.00 93 981.4
20260906042637 0 144 0.0 0.0 0.00 0.00 0.00 93 981.2
20260906042137 0 144 0.0 0.0 0.00 0.00 0.00 93 981.2
20260906041636 0 144 0.0 0.0 0.00 0.00 0.00 93 981.2
20260906041136 0 144 0.0 0.0 0.00 0.00 0.00 92 981.2
20260906040636 0 144 0.0 0.0 0.00 0.00 0.00 92 981.0
20260906040135 0 144 0.0 0.0 0.00 0.00 0.00 92 981.0
20260906035635 0 144 0.0 0.0 0.00 0.00 0.00 92 980.9
20260906035134 0 144 0.0 0.0 0.00 0.00 0.00 92 980.9
20260906034634 0 144 0.0 0.0 0.00 0.00 0.00 91 980.8
20260906034134 0 144 0.0 0.0 0.00 0.00 0.00 91 980.8
20260906033633 0 144 0.0 0.0 0.00 0.00 0.00 91 980.5
20260906033133 0 144 0.0 0.0 0.00 0.00 0.00 90 980.6
20260906032633 0 144 0.0 0.0 0.00 0.00 0.00 90 980.5
20260906032132 0 144 0.0 0.0 0.00 0.00 0.00 90 980.5
20260906031632 0 142 1.0 1.0 0.00 0.00 0.00 90 980.4
20260906031131 0 145 0.0 0.0 0.00 0.00 0.00 89 980.3
20260906030631 0 144 1.0 1.0 0.00 0.00 0.00 89 980.4
20260906030131 0 140 2.0 4.0 0.00 0.00 0.00 89 980.2
20260906025630 0 114 1.0 1.0 0.00 0.00 0.00 89 980.0
20260906025130 0 121 0.0 0.0 0.00 0.00 0.00 88 980.0
20260906024630 0 116 3.0 6.0 0.00 0.00 0.00 88 979.7
20260906024129 0 137 1.0 1.0 0.00 0.00 0.00 88 980.1
20260906023629 0 137 1.0 1.0 0.00 0.00 0.00 88 979.8
20260906023128 0 143 0.0 0.0 0.00 0.00 0.00 88 980.0
20260906022628 0 131 0.0 1.0 0.00 0.00 0.00 87 980.0
20260906022128 0 138 1.0 1.0 0.00 0.00 0.00 88 979.8
20260906021627 0 138 0.0 0.0 0.00 0.00 0.00 88 979.6
20260906021127 0 138 0.0 0.0 0.00 0.00 0.00 88 979.8
20260906020627 0 129 1.0 1.0 0.00 0.00 0.00 87 979.6
20260906020126 0 130 1.0 1.0 0.00 0.00 0.00 87 979.6
20260906015626 0 133 0.0 0.0 0.00 0.00 0.00 87 979.3
20260906015125 0 103 0.0 0.0 0.00 0.00 0.00 87 979.2
20260906014625 0 117 1.0 1.0 0.00 0.00 0.00 86 979.2
20260906014125 0 116 1.0 1.0 0.00 0.00 0.00 86 979.1
20260906013624 0 118 1.0 1.0 0.00 0.00 0.00 86 979.1
20260906013124 0 104 0.0 0.0 0.00 0.00 0.00 85 979.1
20260906012624 0 112 0.0 0.0 0.00 0.00 0.00 85 979.0
20260906012123 0 128 2.0 3.0 0.00 0.00 0.00 84 979.0
20260906011623 0 139 1.0 1.0 0.00 0.00 0.00 83 979.0
20260906011122 0 129 1.0 1.0 0.00 0.00 0.00 83 978.8
20260906010622 0 118 2.0 2.0 0.00 0.00 0.00 83 978.8
20260906010122 0 85 1.0 1.0 0.00 0.00 0.00 82 978.9
20260906005621 0 121 0.0 0.0 0.00 0.00 0.00 82 978.5
20260906005121 0 168 0.0 1.0 0.00 0.00 0.00 81 978.7
20260906004621 0 124 1.0 1.0 0.00 0.00 0.00 81 978.5
20260906004120 0 143 1.0 1.0 0.00 0.00 0.00 81 978.5
20260906003620 0 147 2.0 2.0 0.00 0.00 0.00 81 978.8
20260906003120 0 148 1.0 1.0 0.00 0.00 0.00 80 978.7
20260906002619 0 119 1.0 1.0 0.00 0.00 0.00 80 978.6
20260906002119 0 119 1.0 1.0 0.00 0.00 0.00 80 978.7
20260906001618 0 125 1.0 1.0 0.00 0.00 0.00 80 978.5
20260906001118 0 104 2.0 2.0 0.00 0.00 0.00 81 978.7
20260906000618 0 89 1.0 1.0 0.00 0.00 0.00 81 978.7
20260906000117 0 140 1.0 1.0 0.00 0.00 0.00 81 978.8
20260905235617 0 141 2.0 1.0 0.00 0.00 0.00 81 979.0
20260905235117 0 159 1.0 1.0 0.00 0.00 0.00 82 979.1
20260905234616 0 159 1.0 1.0 0.00 0.00 0.00 82 978.9
20260905234116 0 159 1.0 1.0 0.00 0.00 0.00 82 979.1
20260905233615 0 159 0.0 0.0 0.00 0.00 0.00 81 979.2
20260905233115 0 159 1.0 1.0 0.00 0.00 0.00 82 979.0
20260905232615 0 159 1.0 1.0 0.00 0.00 0.00 80 979.1
20260905232114 0 159 1.0 1.0 0.00 0.00 0.00 80 979.2
20260905231614 0 164 1.0 1.0 0.00 0.00 0.00 80 979.2
20260905231114 0 164 1.0 1.0 0.00 0.00 0.00 80 979.2
20260905230613 0 164 0.0 0.0 0.00 0.00 0.00 79 978.9
20260905230113 0 164 0.0 0.0 0.00 0.00 0.00 78 979.1
20260905225612 0 164 0.0 0.0 0.00 0.00 0.00 77 979.0
20260905225112 0 164 0.0 0.0 0.00 0.00 0.00 77 979.2
20260905224612 0 165 1.0 1.0 0.00 0.00 0.00 76 979.2
20260905224111 0 165 0.0 0.0 0.00 0.00 0.00 77 978.9
20260905223611 0 165 1.0 1.0 0.00 0.00 0.00 76 979.0
20260905223110 0 166 0.0 0.0 0.00 0.00 0.00 77 978.9
20260905222610 0 166 0.0 0.0 0.00 0.00 0.00 78 979.0
20260905222110 0 166 0.0 0.0 0.00 0.00 0.00 78 979.1
20260905221609 0 166 0.0 0.0 0.00 0.00 0.00 77 979.0
20260905221109 0 166 0.0 0.0 0.00 0.00 0.00 76 979.3
20260905220609 0 166 0.0 0.0 0.00 0.00 0.00 77 979.2
20260905220108 0 166 0.0 0.0 0.00 0.00 0.00 77 979.3
20260905215608 0 166 0.0 0.0 0.00 0.00 0.00 77 979.3
20260905215107 0 166 0.0 0.0 0.00 0.00 0.00 76 979.3
20260905214607 0 166 0.0 0.0 0.00 0.00 0.00 74 979.0
20260905214107 0 166 0.0 0.0 0.00 0.00 0.00 73 979.2
20260905213606 0 166 0.0 0.0 0.00 0.00 0.00 73 979.2
20260905213106 0 166 0.0 0.0 0.00 0.00 0.00 71 979.4
20260905212605 0 166 0.0 0.0 0.00 0.00 0.00 73 979.1
20260905212105 0 166 0.0 0.0 0.00 0.00 0.00 74 979.2
20260905211605 0 166 0.0 0.0 0.00 0.00 0.00 74 979.0
20260905211104 0 166 0.0 0.0 0.00 0.00 0.00 71 979.2
20260905210604 0 169 1.0 1.0 0.00 0.00 0.00 69 979.0
20260905210103 0 170 0.0 0.0 0.00 0.00 0.00 68 979.0
20260905205603 0 170 1.0 0.0 0.00 0.00 0.00 70 978.9
20260905205103 0 170 1.0 1.0 0.00 0.00 0.00 73 978.9
20260905204602 0 195 0.0 0.0 0.00 0.00 0.00 74 979.0
20260905204102 0 196 0.0 0.0 0.00 0.00 0.00 76 979.0
20260905203601 0 196 0.0 0.0 0.00 0.00 0.00 77 979.3
20260905203101 0 199 0.0 0.0 0.00 0.00 0.00 76 979.3
20260905202601 0 199 0.0 0.0 0.00 0.00 0.00 78 979.5
20260905202100 0 199 1.0 1.0 0.00 0.00 0.00 75 979.6
20260905201600 0 200 1.0 1.0 0.00 0.00 0.00 72 979.5
20260905201100 0 200 1.0 1.0 0.00 0.00 0.00 72 979.5
20260905200559 0 200 1.0 1.0 0.00 0.00 0.00 73 979.3
20260905200059 0 200 1.0 1.0 0.00 0.00 0.00 78 979.5
20260905195558 0 199 0.0 0.0 0.00 0.00 0.00 82 979.4
20260905195058 0 199 0.0 0.0 0.00 0.00 0.00 82 979.6
20260905194558 0 199 1.0 1.0 0.00 0.00 0.00 81 979.4
20260905194057 0 199 0.0 0.0 0.00 0.00 0.00 80 979.5
20260905193557 0 199 0.0 0.0 0.00 0.00 0.00 80 979.5
20260905193057 0 199 0.0 0.0 0.00 0.00 0.00 81 979.4
20260905192556 0 200 1.0 1.0 0.00 0.00 0.00 80 979.5
20260905192055 0 199 1.0 1.0 0.00 0.00 0.00 81 979.4
20260905191555 0 199 0.0 0.0 0.00 0.00 0.00 83 979.5
20260905191055 0 198 0.0 0.0 0.00 0.00 0.00 82 979.5
20260905190555 0 198 1.0 1.0 0.00 0.00 0.00 81 979.8
20260905190054 0 198 1.0 1.0 0.00 0.00 0.00 82 979.5
20260905185554 0 198 0.0 0.0 0.00 0.00 0.00 81 979.5
20260905185053 0 202 1.0 0.0 0.00 0.00 0.00 83 979.8
20260905184553 0 202 0.0 0.0 0.00 0.00 0.00 83 979.4
20260905184052 0 133 0.0 0.0 0.00 0.00 0.00 84 979.7
20260905183552 0 133 0.0 0.0 0.00 0.00 0.00 86 979.9
20260905183052 0 133 0.0 0.0 0.00 0.00 0.00 85 979.7
20260905182551 0 133 0.0 0.0 0.00 0.00 0.00 85 980.0
20260905182051 0 133 0.0 0.0 0.00 0.00 0.00 87 980.0
20260905181551 0 134 0.0 1.0 0.00 0.00 0.00 86 980.0
20260905181050 0 134 0.0 0.0 0.00 0.00 0.00 86 980.2
20260905180550 0 134 1.0 1.0 0.00 0.00 0.00 85 979.9
20260905180049 0 109 1.0 1.0 0.00 0.00 0.00 84 980.0
20260905175549 0 109 0.0 0.0 0.00 0.00 0.00 83 980.1
20260905175049 0 119 1.0 1.0 0.00 0.00 0.00 84 979.9
20260905174548 0 128 0.0 0.0 0.00 0.00 0.00 87 980.0
20260905174048 0 129 0.0 0.0 0.00 0.00 0.00 87 980.2
20260905173547 0 131 1.0 1.0 0.00 0.00 0.00 86 980.1
20260905173047 0 128 2.0 2.0 0.00 0.00 0.00 86 980.2
20260905172547 0 122 1.0 1.0 0.00 0.00 0.00 86 980.0
20260905172047 0 143 1.0 0.0 0.00 0.00 0.00 86 979.9
20260905171546 0 143 0.0 0.0 0.00 0.00 0.00 86 980.0
20260905171045 0 145 1.0 2.0 0.00 0.00 0.00 86 980.1
20260905170545 0 146 1.0 1.0 0.00 0.00 0.00 86 979.7
20260905170045 0 133 1.0 1.0 0.00 0.00 0.00 85 980.1
20260905165544 0 133 0.0 0.0 0.00 0.00 0.00 85 980.1
20260905165044 0 132 0.0 0.0 0.00 0.00 0.00 85 980.0
20260905164544 0 130 0.0 0.0 0.00 0.00 0.00 86 979.9
20260905164043 0 135 1.0 1.0 0.00 0.00 0.00 86 980.0
20260905163543 0 134 1.0 1.0 0.00 0.00 0.00 87 979.9
20260905163042 0 134 2.0 2.0 0.00 0.00 0.00 86 980.0
20260905162542 0 151 2.0 2.0 0.00 0.00 0.00 87 980.0
20260905162041 0 127 2.0 2.0 0.00 0.00 0.00 87 980.0
20260905161541 0 130 2.0 3.0 0.00 0.00 0.00 87 980.0
20260905161040 0 133 1.0 1.0 0.00 0.00 0.00 87 979.9
20260905160540 0 133 1.0 1.0 0.00 0.00 0.00 87 979.8
20260905160040 0 133 0.0 0.0 0.00 0.00 0.00 89 980.0
20260905155539 0 139 2.0 2.0 0.00 0.00 0.00 88 979.9
20260905155039 0 140 1.0 1.0 0.00 0.00 0.00 88 980.0